When you browse on this site, cookies collect data to enhance your experience and personalize the content and advertising you see.
Visit our Privacy Policy to learn more. By continuing to use the site, you agree to this use of cookies and data.
  • Em Portugal
  • Lista de países
  • Para 7 dias
  • Temperatura da água
  • Mapa do tempo
  • Widgets de tempo
  • user-avatar
    Iniciar Sessão

    Previsão horária em Arbela

    Hoje, 25 Agosto, Domingo

    Tempo Temperatura Precipitação Vento Pressão Humidade
    00:00 +32°C° 0 mm 2 m/s 722 mmHg 22%
    01:00 +32°C° 0 mm 2 m/s 721 mmHg 23%
    02:00 +32°C° 0 mm 2 m/s 721 mmHg 23%
    03:00 +31°C° 0 mm 2 m/s 721 mmHg 23%
    04:00 +31°C° 0 mm 2 m/s 721 mmHg 24%
    05:00 +31°C° 0 mm 2 m/s 721 mmHg 24%
    06:00 +31°C° 0 mm 1 m/s 721 mmHg 25%
    07:00 +34°C° 0 mm 1 m/s 722 mmHg 21%
    08:00 +37°C° 0 mm 1 m/s 722 mmHg 18%
    09:00 +41°C° 0 mm 1 m/s 722 mmHg 14%
    10:00 +43°C° 0 mm 1 m/s 722 mmHg 13%
    11:00 +45°C° 0 mm 2 m/s 722 mmHg 11%
    12:00 +47°C° 0 mm 2 m/s 721 mmHg 10%
    13:00 +47°C° 0 mm 3 m/s 721 mmHg 10%
    14:00 +49°C° 0 mm 4 m/s 721 mmHg 9%
    15:00 +49°C° 0 mm 4 m/s 721 mmHg 9%
    16:00 +48°C° 0 mm 4 m/s 720 mmHg 9%
    17:00 +46°C° 0 mm 3 m/s 720 mmHg 10%
    18:00 +43°C° 0 mm 2 m/s 720 mmHg 11%
    19:00 +41°C° 0 mm 2 m/s 720 mmHg 13%
    20:00 +37°C° 0 mm 1 m/s 720 mmHg 14%
    21:00 +35°C° 0 mm 1 m/s 720 mmHg 16%
    22:00 +34°C° 0 mm 1 m/s 720 mmHg 17%
    23:00 +34°C° 0 mm 1 m/s 720 mmHg 17%

    Amanhã, 26 Agosto, Segunda-feira

    Tempo Temperatura Precipitação Vento Pressão Humidade
    00:00 +33°C° 0 mm 1 m/s 720 mmHg 18%
    01:00 +33°C° 0 mm 1 m/s 720 mmHg 18%
    02:00 +32°C° 0 mm 1 m/s 720 mmHg 19%
    03:00 +31°C° 0 mm 1 m/s 720 mmHg 20%
    04:00 +31°C° 0 mm 1 m/s 720 mmHg 20%
    05:00 +31°C° 0 mm 1 m/s 720 mmHg 21%
    06:00 +31°C° 0 mm 1 m/s 720 mmHg 21%
    07:00 +34°C° 0 mm 1 m/s 721 mmHg 18%
    08:00 +39°C° 0 mm 1 m/s 721 mmHg 15%
    09:00 +42°C° 0 mm 1 m/s 722 mmHg 11%
    10:00 +45°C° 0 mm 2 m/s 721 mmHg 10%
    11:00 +46°C° 0 mm 3 m/s 721 mmHg 8%
    12:00 +49°C° 0 mm 4 m/s 721 mmHg 7%
    13:00 +49°C° 0 mm 5 m/s 721 mmHg 6%
    14:00 +51°C° 0 mm 6 m/s 721 mmHg 6%
    15:00 +51°C° 0 mm 7 m/s 720 mmHg 6%
    16:00 +48°C° 0 mm 6 m/s 720 mmHg 7%
    17:00 +47°C° 0 mm 5 m/s 720 mmHg 8%
    18:00 +45°C° 0 mm 4 m/s 720 mmHg 9%
    19:00 +42°C° 0 mm 3 m/s 720 mmHg 10%
    20:00 +39°C° 0 mm 3 m/s 720 mmHg 12%
    21:00 +37°C° 0 mm 2 m/s 721 mmHg 14%
    22:00 +36°C° 0 mm 2 m/s 721 mmHg 15%
    23:00 +35°C° 0 mm 2 m/s 721 mmHg 16%

    Depois de amanhã, 27 Agosto, Terça-feira

    Tempo Temperatura Precipitação Vento Pressão Humidade
    00:00 +34°C° 0 mm 2 m/s 721 mmHg 17%
    01:00 +34°C° 0 mm 2 m/s 721 mmHg 17%
    02:00 +32°C° 0 mm 2 m/s 720 mmHg 17%
    03:00 +32°C° 0 mm 2 m/s 720 mmHg 18%
    04:00 +32°C° 0 mm 2 m/s 721 mmHg 18%
    05:00 +32°C° 0 mm 1 m/s 721 mmHg 18%
    06:00 +32°C° 0 mm 1 m/s 721 mmHg 18%
    07:00 +35°C° 0 mm 1 m/s 721 mmHg 15%
    08:00 +40°C° 0 mm 2 m/s 722 mmHg 13%
    09:00 +43°C° 0 mm 2 m/s 722 mmHg 10%
    10:00 +45°C° 0 mm 3 m/s 722 mmHg 9%
    11:00 +47°C° 0 mm 3 m/s 722 mmHg 8%
    12:00 +49°C° 0 mm 4 m/s 722 mmHg 8%
    13:00 +49°C° 0 mm 5 m/s 721 mmHg 7%
    14:00 +49°C° 0 mm 6 m/s 721 mmHg 7%
    15:00 +51°C° 0 mm 6 m/s 721 mmHg 7%
    16:00 +48°C° 0 mm 6 m/s 720 mmHg 8%
    17:00 +47°C° 0 mm 5 m/s 720 mmHg 9%
    18:00 +45°C° 0 mm 4 m/s 720 mmHg 10%
    19:00 +42°C° 0 mm 4 m/s 720 mmHg 12%
    20:00 +39°C° 0 mm 3 m/s 720 mmHg 14%
    21:00 +36°C° 0 mm 2 m/s 721 mmHg 16%
    22:00 +35°C° 0 mm 2 m/s 720 mmHg 17%
    23:00 +34°C° 0 mm 2 m/s 720 mmHg 18%

    28 Agosto, Quarta-feira

    Tempo Temperatura Precipitação Vento Pressão Humidade
    00:00 +32°C° 0 mm 2 m/s 720 mmHg 19%
    01:00 +32°C° 0 mm 2 m/s 720 mmHg 20%
    02:00 +32°C° 0 mm 2 m/s 720 mmHg 20%
    03:00 +31°C° 0 mm 2 m/s 720 mmHg 20%
    04:00 +31°C° 0 mm 2 m/s 720 mmHg 21%
    05:00 +31°C° 0 mm 1 m/s 720 mmHg 21%
    06:00 +30°C° 0 mm 1 m/s 720 mmHg 22%
    07:00 +34°C° 0 mm 1 m/s 721 mmHg 18%
    08:00 +37°C° 0 mm 1 m/s 721 mmHg 15%
    09:00 +41°C° 0 mm 1 m/s 721 mmHg 12%
    10:00 +43°C° 0 mm 2 m/s 721 mmHg 11%
    11:00 +45°C° 0 mm 3 m/s 721 mmHg 10%
    12:00 +47°C° 0 mm 4 m/s 721 mmHg 9%
    13:00 +48°C° 0 mm 5 m/s 721 mmHg 9%
    14:00 +48°C° 0 mm 5 m/s 720 mmHg 8%
    15:00 +49°C° 0 mm 6 m/s 720 mmHg 8%
    16:00 +48°C° 0 mm 5 m/s 720 mmHg 9%
    17:00 +45°C° 0 mm 4 m/s 720 mmHg 10%
    18:00 +44°C° 0 mm 3 m/s 720 mmHg 11%
    19:00 +42°C° 0 mm 3 m/s 720 mmHg 13%
    20:00 +38°C° 0 mm 2 m/s 720 mmHg 15%
    21:00 +36°C° 0 mm 2 m/s 721 mmHg 17%
    22:00 +35°C° 0 mm 2 m/s 721 mmHg 18%
    23:00 +34°C° 0 mm 1 m/s 720 mmHg 19%

    29 Agosto, Quinta-feira

    Tempo Temperatura Precipitação Vento Pressão Humidade
    00:00 +33°C° 0 mm 1 m/s 720 mmHg 20%
    01:00 +34°C° 0 mm 2 m/s 720 mmHg 20%
    02:00 +34°C° 0 mm 2 m/s 720 mmHg 20%
    03:00 +34°C° 0 mm 2 m/s 720 mmHg 20%
    04:00 +34°C° 0 mm 2 m/s 720 mmHg 20%
    05:00 +34°C° 0 mm 2 m/s 721 mmHg 20%
    06:00 +32°C° 0 mm 2 m/s 721 mmHg 21%
    07:00 +37°C° 0 mm 2 m/s 721 mmHg 18%
    08:00 +40°C° 0 mm 2 m/s 721 mmHg 15%
    09:00 +43°C° 0 mm 2 m/s 722 mmHg 12%
    10:00 +45°C° 0 mm 2 m/s 721 mmHg 11%
    11:00 +47°C° 0 mm 3 m/s 721 mmHg 10%
    12:00 +49°C° 0 mm 4 m/s 721 mmHg 9%
    13:00 +49°C° 0 mm 4 m/s 721 mmHg 9%
    14:00 +49°C° 0 mm 5 m/s 721 mmHg 8%
    15:00 +51°C° 0 mm 6 m/s 720 mmHg 8%
    16:00 +48°C° 0 mm 5 m/s 720 mmHg 9%
    17:00 +47°C° 0 mm 4 m/s 720 mmHg 10%
    18:00 +45°C° 0 mm 3 m/s 720 mmHg 10%
    19:00 +42°C° 0 mm 3 m/s 720 mmHg 12%
    20:00 +39°C° 0 mm 2 m/s 720 mmHg 14%
    21:00 +36°C° 0 mm 1 m/s 720 mmHg 16%
    22:00 +35°C° 0 mm 1 m/s 720 mmHg 16%
    23:00 +35°C° 0 mm 1 m/s 720 mmHg 16%

    30 Agosto, Sexta-feira

    Tempo Temperatura Precipitação Vento Pressão Humidade
    00:00 +35°C° 0 mm 1 m/s 720 mmHg 17%
    01:00 +36°C° 0 mm 2 m/s 720 mmHg 17%
    02:00 +36°C° 0 mm 3 m/s 719 mmHg 17%
    03:00 +36°C° 0 mm 3 m/s 719 mmHg 18%
    04:00 +35°C° 0 mm 3 m/s 719 mmHg 18%
    05:00 +35°C° 0 mm 4 m/s 719 mmHg 18%
    06:00 +35°C° 0 mm 4 m/s 719 mmHg 19%
    07:00 +37°C° 0 mm 3 m/s 720 mmHg 16%
    08:00 +40°C° 0 mm 3 m/s 720 mmHg 14%
    09:00 +43°C° 0 mm 3 m/s 720 mmHg 12%
    10:00 +45°C° 0 mm 4 m/s 720 mmHg 11%
    11:00 +48°C° 0 mm 6 m/s 720 mmHg 9%
    12:00 +50°C° 0 mm 7 m/s 720 mmHg 8%
    13:00 +51°C° 0 mm 8 m/s 719 mmHg 8%
    14:00 +52°C° 0 mm 10 m/s 719 mmHg 7%
    15:00 +53°C° 0 mm 11 m/s 719 mmHg 7%
    16:00 +50°C° 0 mm 9 m/s 719 mmHg 8%
    17:00 +49°C° 0 mm 7 m/s 719 mmHg 8%
    18:00 +46°C° 0 mm 5 m/s 718 mmHg 9%
    19:00 +43°C° 0 mm 5 m/s 719 mmHg 13%
    20:00 +40°C° 0 mm 5 m/s 719 mmHg 16%
    21:00 +37°C° 0 mm 4 m/s 719 mmHg 20%
    22:00 +35°C° 0 mm 4 m/s 719 mmHg 21%
    23:00 +34°C° 0 mm 3 m/s 719 mmHg 23%
    Mostrar mais